Wind_Speed
8 7 9 9 9 6 6 3 1 1 1 6 4 5 5 3 1 5 8 10 12 14 16 18 20 22 24 26 29 31 32 35 36 35 36 36 34 33 32 28 24 27 29 25
4 8 7 7 5 5 4 3 3 3 5 5 3 12 1 2 1 1 5 8 11 14 16 18 20 23 25 26 28 29 31 33 34 35 35 34 35 32 34 34 28 24 30 29
2 11 4 4 5 5 4 3 2 3 4 3 6 7 4 2 4 5 2 5 9 14 19 22 24 25 26 28 29 29 30 30 31 33 34 34 32 31 31 33 34 26 23 29
8 5 4 4 3 3 4 3 3 5 4 3 2 3 6 3 5 7 3 6 9 13 17 22 25 26 27 28 28 27 27 28 29 29 32 34 35 36 36 34 35 34 26 23
5 9 7 3 0 2 2 3 6 5 5 4 4 4 2 2 4 5 3 6 9 12 17 21 23 25 26 27 29 29 27 28 27 28 28 32 34 33 34 35 33 35 29 25
7 4 2 2 2 2 4 1 3 2 2 3 5 2 4 4 3 4 2 5 10 15 17 19 20 22 23 25 27 28 29 27 28 27 27 29 31 34 34 34 35 34 34 29
5 4 4 2 5 3 2 3 3 3 4 2 5 5 7 5 3 2 3 7 11 13 16 19 22 25 25 26 27 28 29 29 29 29 27 28 30 31 33 33 35 35 36 33
8 5 8 4 2 2 1 2 3 5 3 3 2 7 2 2 3 6 8 10 13 13 15 18 22 25 25 26 28 29 29 30 30 31 29 28 28 30 31 32 33 33 34 34
6 4 3 3 2 3 5 3 1 0 0 3 3 5 4 3 7 9 10 10 13 13 17 21 22 23 23 25 27 29 30 28 29 31 31 29 29 28 30 31 31 32 32 33
6 4 6 5 1 6 4 8 3 2 3 6 5 5 9 6 7 6 8 10 13 13 16 20 21 22 21 24 27 27 27 28 28 29 30 31 30 29 29 30 30 30 31 31
5 2 6 5 8 9 5 4 1 1 2 4 5 3 3 8 8 7 8 11 12 15 16 18 20 19 20 23 25 26 26 26 27 27 29 30 30 28 28 30 31 31 31 30
3 1 5 2 2 2 2 4 7 4 6 2 3 7 5 6 9 6 10 12 12 13 15 17 17 17 19 21 22 24 25 26 27 27 28 29 30 29 28 28 30 31 31 29
8 4 3 3 2 3 6 6 3 4 1 9 4 5 3 5 9 10 12 13 12 13 15 15 15 16 18 20 21 23 24 25 26 27 27 28 29 29 28 28 30 30 30 30
8 3 5 6 3 4 6 12 14 9 5 7 13 10 7 10 11 10 11 12 13 13 13 14 14 15 17 19 20 22 23 25 26 28 29 29 30 30 29 28 30 31 30 29
4 6 4 3 1 3 5 8 18 19 16 12 11 12 12 10 9 11 12 12 14 13 13 13 14 15 16 18 19 21 22 24 26 28 29 31 30 30 28 27 29 31 30 28
1 3 2 3 2 6 9 14 16 20 19 18 16 21 10 19 17 16 16 14 15 13 12 13 14 14 16 17 19 20 23 24 25 27 29 30 31 29 28 27 28 31 31 28
7 7 5 3 1 2 7 20 23 14 14 18 13 17 6 5 12 17 18 18 17 14 12 12 13 14 15 17 19 20 22 24 25 26 28 29 31 30 28 27 27 30 32 29
7 6 2 1 2 7 3 1 2 19 11 20 11 10 10 12 16 18 18 17 17 15 12 11 13 14 15 16 19 20 22 24 25 25 27 28 30 30 29 27 25 27 30 29
3 4 3 3 5 9 7 6 7 10 10 22 23 20 14 12 7 21 22 20 16 13 11 11 13 15 16 17 19 20 20 23 26 26 26 27 28 30 30 28 26 26 30 29
3 2 3 3 5 7 4 1 5 3 8 7 23 23 17 12 8 10 5 11 10 11 12 14 15 17 17 17 20 20 21 22 25 26 26 27 27 28 29 28 26 24 26 28
4 3 11 9 6 8 0 7 7 5 5 16 9 12 12 9 9 6 9 6 8 13 14 16 17 19 18 19 22 21 21 21 23 25 26 26 26 27 28 28 25 23 24 26
10 10 6 5 7 10 6 7 5 3 7 13 12 4 6 11 7 6 7 10 13 16 18 18 20 21 20 20 22 24 22 21 23 24 25 25 26 26 26 27 26 23 21 24
4 5 4 10 4 2 7 2 1 10 11 9 10 12 9 6 6 10 12 14 16 18 18 19 21 23 21 21 22 25 23 23 24 23 24 25 25 25 24 26 26 24 21 20
7 3 3 2 3 3 6 2 7 12 12 15 14 14 13 13 13 14 14 15 16 17 19 20 22 23 23 23 23 25 26 25 25 24 23 24 24 24 22 22 24 23 21 19
3 5 3 1 4 2 5 8 8 10 10 8 7 7 9 10 11 13 14 16 18 19 21 21 24 26 27 27 27 26 27 27 27 25 24 24 24 23 22 20 21 22 19 19
1 1 2 1 2 2 2 7 7 9 10 10 11 10 10 11 13 15 16 16 19 21 22 26 27 28 30 30 30 27 27 26 27 27 24 23 23 22 22 21 18 13 18 17
Wind_Direction
26 90 85 68 57 77 92 95 217 206 16 323 286 267 175 175 10 18 15 8 4 4 359 0 0 358 354 352 350 349 347 347 344 341 334 327 325 321 317 309 300 289 277 264
87 98 92 81 74 97 109 134 223 265 197 283 254 261 181 199 186 38 0 354 353 352 356 357 359 356 354 352 349 347 346 345 345 341 340 336 329 322 321 318 312 301 285 283
81 131 125 103 112 154 172 213 209 278 306 234 276 249 221 153 218 224 311 346 348 350 350 352 351 354 351 349 348 347 345 342 342 339 336 333 328 321 317 316 316 313 303 286
90 143 160 126 115 259 201 186 279 269 271 293 317 291 214 179 229 227 267 341 344 345 346 346 345 345 347 346 343 343 342 340 340 340 336 336 336 331 326 321 316 316 314 303
120 156 164 188 198 209 77 284 277 258 242 285 177 244 170 178 240 223 243 326 336 337 342 340 341 340 341 341 342 341 342 340 339 338 337 334 332 331 326 323 317 314 315 309
126 122 173 136 185 243 332 228 137 142 190 241 156 258 232 189 152 159 224 322 329 335 334 334 334 335 335 337 337 339 339 339 337 337 336 335 331 330 329 327 323 318 315 316
158 166 143 161 176 212 273 204 230 218 213 321 145 237 282 143 158 197 270 305 318 320 326 329 331 333 333 337 337 337 338 338 337 335 335 334 332 330 330 331 329 325 318 318
182 211 189 143 235 198 177 254 288 284 275 342 185 237 242 119 197 236 256 287 304 306 319 325 326 327 328 332 335 335 335 335 335 334 335 334 332 330 328 329 329 326 321 320
167 176 109 69 149 236 150 203 32 89 67 274 211 262 190 209 239 239 258 280 300 303 319 324 325 326 324 328 333 333 332 332 333 333 333 334 332 330 328 326 327 326 323 317
172 136 194 157 193 58 251 136 163 183 251 260 203 259 244 195 209 216 249 293 307 309 316 322 325 326 325 327 330 330 328 329 331 331 331 333 333 331 329 327 327 327 324 319
162 246 146 162 205 187 156 183 102 11 266 256 293 223 167 163 174 197 264 292 304 311 317 320 325 327 327 330 332 331 330 328 329 330 330 332 332 331 330 329 329 328 326 322
160 122 183 185 93 337 294 214 193 220 188 214 318 269 160 163 178 210 274 290 305 308 314 318 323 326 327 331 335 334 335 334 333 333 331 332 334 333 332 331 331 330 328 325
174 187 165 197 203 204 226 189 153 95 48 204 206 251 165 214 234 241 271 287 292 300 309 314 319 321 324 331 334 336 339 339 339 338 336 334 335 336 334 333 333 332 331 326
161 182 239 266 49 119 199 196 192 190 201 190 226 266 202 219 232 249 273 269 278 289 299 308 315 318 323 329 333 336 339 340 342 344 342 339 338 338 336 335 335 335 334 332
199 225 217 250 204 230 235 207 195 208 216 214 260 223 251 225 216 246 264 253 267 281 291 302 308 314 321 327 331 333 336 339 341 344 345 343 340 338 336 336 338 337 340 338
174 200 162 254 225 235 256 242 220 221 231 246 260 275 246 247 247 251 234 243 258 271 286 297 304 312 319 323 327 332 334 336 339 342 344 343 341 340 339 338 341 341 346 345
167 155 161 233 33 267 256 238 211 209 218 220 217 236 166 200 214 222 224 232 246 259 273 287 299 308 317 321 323 328 330 332 336 338 341 341 342 343 342 340 341 344 352 351
149 145 176 257 210 246 316 41 250 219 232 217 247 238 211 227 233 230 228 232 246 254 264 279 296 306 313 317 319 325 327 328 330 334 336 340 341 344 344 342 341 342 350 355
358 143 159 230 224 319 275 196 181 183 258 216 224 240 221 220 275 265 251 247 253 243 260 280 295 303 310 315 313 320 325 325 326 330 333 336 339 342 344 343 341 341 344 352
79 46 247 158 247 262 34 149 187 201 268 22 222 238 208 169 238 247 270 203 211 250 271 284 290 297 305 309 309 316 320 322 322 325 329 332 336 338 340 342 341 338 337 344
165 188 219 217 257 283 117 144 149 188 317 340 317 251 185 203 240 171 170 213 268 281 284 285 287 292 301 302 303 309 312 319 317 319 323 327 330 333 336 340 340 336 333 336
175 165 192 190 223 264 145 126 213 1 358 7 12 340 261 235 205 236 267 283 286 285 286 287 288 292 297 299 299 303 307 309 311 314 316 321 325 329 332 335 338 336 335 334
216 220 189 203 214 45 204 25 14 327 322 340 355 7 1 332 312 304 297 289 285 286 287 290 292 292 294 296 295 296 304 301 303 307 310 314 319 323 328 331 335 337 336 338
206 166 243 235 93 39 40 280 332 337 301 287 286 312 317 318 312 303 300 299 300 298 300 299 298 297 296 297 296 296 297 297 297 300 303 307 312 317 323 328 331 334 335 335
13 157 176 219 100 144 68 39 15 15 18 13 352 326 319 319 316 312 309 308 308 309 307 304 303 302 301 299 297 296 294 292 291 292 295 299 304 310 315 322 329 328 332 332
353 33 238 23 24 307 312 349 356 358 357 353 344 338 331 323 317 314 313 311 312 315 304 306 304 302 301 301 298 296 294 290 286 284 286 290 296 303 308 314 320 326 319 323
Height
1540 1536 1543 1550 1551 1553 1552 1552 1552 1556 1562 1561 1557 1562 1570 1577 1578 1578 1577 1575 1574 1571 1568 1565 1561 1558 1554 1549 1543 1539 1534 1528 1523 1519 1513 1508 1505 1501 1497 1494 1492 1489 1488 1486
1542 1549 1558 1558 1557 1556 1556 1559 1557 1559 1562 1564 1560 1560 1568 1574 1576 1577 1576 1574 1572 1570 1567 1564 1560 1556 1552 1548 1544 1539 1534 1528 1523 1518 1513 1509 1503 1499 1494 1490 1488 1484 1482 1480
1541 1557 1562 1560 1560 1560 1560 1558 1559 1561 1562 1561 1560 1550 1562 1573 1574 1575 1575 1573 1571 1567 1563 1560 1556 1553 1550 1546 1542 1537 1533 1528 1524 1518 1512 1507 1503 1498 1492 1486 1482 1480 1477 1474
1556 1563 1562 1562 1562 1563 1559 1563 1565 1565 1563 1544 1560 1525 1547 1566 1567 1570 1572 1572 1570 1566 1563 1559 1555 1551 1547 1544 1541 1537 1533 1527 1523 1517 1511 1505 1498 1492 1487 1482 1478 1475 1472 1469
1562 1562 1564 1563 1564 1566 1562 1566 1565 1563 1559 1560 1555 1551 1534 1564 1557 1564 1569 1569 1567 1565 1560 1557 1554 1550 1546 1542 1538 1534 1531 1526 1521 1516 1510 1503 1497 1492 1485 1479 1474 1470 1467 1464
1559 1564 1565 1564 1566 1566 1566 1564 1563 1562 1560 1554 1547 1548 1525 1540 1553 1563 1567 1567 1565 1561 1559 1555 1552 1549 1546 1541 1536 1532 1527 1523 1518 1513 1508 1502 1495 1488 1482 1476 1470 1464 1460 1456
1560 1561 1564 1565 1563 1565 1563 1561 1537 1538 1542 1525 1557 1558 1532 1553 1561 1564 1565 1565 1563 1560 1557 1553 1549 1545 1542 1538 1533 1529 1524 1520 1515 1510 1505 1499 1493 1487 1480 1473 1466 1460 1454 1449
1545 1549 1559 1563 1560 1557 1559 1560 1536 1527 1519 1524 1573 1547 1529 1560 1562 1564 1563 1561 1560 1558 1554 1550 1547 1543 1538 1535 1530 1525 1521 1516 1511 1506 1501 1496 1491 1484 1478 1471 1464 1458 1452 1446
1544 1551 1562 1563 1564 1564 1559 1554 1569 1564 1568 1559 1538 1547 1554 1559 1560 1560 1559 1559 1557 1554 1551 1547 1544 1540 1535 1532 1527 1522 1517 1513 1508 1503 1497 1492 1487 1481 1475 1469 1462 1455 1449 1442
1547 1552 1560 1564 1566 1566 1561 1566 1562 1560 1556 1541 1536 1552 1519 1548 1551 1555 1555 1555 1553 1550 1547 1544 1541 1536 1532 1528 1523 1520 1515 1510 1505 1500 1494 1488 1483 1478 1472 1465 1458 1451 1445 1438
1549 1546 1561 1564 1559 1551 1564 1562 1569 1562 1563 1540 1526 1514 1532 1537 1545 1549 1550 1550 1548 1546 1543 1540 1537 1533 1529 1525 1520 1516 1512 1507 1502 1497 1491 1485 1479 1474 1468 1461 1454 1447 1441 1435
1549 1547 1545 1550 1566 1567 1564 1556 1555 1540 1558 1568 1568 1532 1536 1539 1543 1545 1545 1544 1543 1541 1539 1536 1533 1530 1526 1522 1517 1514 1509 1503 1498 1493 1488 1482 1475 1470 1464 1458 1451 1444 1436 1431
1545 1545 1542 1550 1565 1565 1560 1560 1565 1571 1566 1558 1547 1512 1538 1540 1541 1540 1539 1538 1538 1537 1535 1532 1529 1526 1523 1518 1514 1510 1505 1500 1495 1490 1484 1478 1472 1466 1460 1453 1447 1441 1433 1425
1543 1546 1531 1503 1526 1540 1551 1551 1556 1550 1550 1536 1531 1513 1532 1533 1534 1533 1533 1533 1533 1532 1530 1528 1526 1523 1519 1515 1511 1507 1503 1497 1492 1486 1480 1474 1468 1462 1455 1450 1443 1436 1428 1420
1543 1540 1542 1543 1550 1549 1542 1542 1548 1545 1530 1527 1502 1525 1511 1519 1524 1526 1526 1527 1527 1526 1525 1523 1522 1519 1516 1512 1508 1504 1499 1494 1489 1483 1477 1471 1465 1459 1452 1446 1440 1432 1425 1417
1546 1537 1549 1543 1552 1552 1548 1541 1538 1537 1531 1534 1525 1523 1512 1514 1517 1518 1518 1520 1520 1520 1520 1519 1518 1515 1512 1509 1505 1501 1496 1491 1486 1480 1475 1469 1462 1455 1448 1443 1437 1430 1421 1411
1542 1546 1547 1526 1557 1557 1542 1521 1519 1516 1518 1516 1527 1496 1507 1509 1509 1509 1512 1513 1514 1515 1515 1515 1513 1511 1508 1505 1501 1498 1493 1488 1483 1478 1473 1467 1460 1453 1446 1439 1432 1426 1418 1409
1540 1540 1545 1533 1556 1520 1492 1511 1509 1505 1503 1509 1503 1499 1499 1500 1502 1503 1505 1506 1508 1509 1510 1510 1508 1507 1504 1501 1498 1494 1490 1485 1480 1476 1471 1465 1459 1452 1445 1439 1432 1426 1419 1413
1538 1537 1546 1531 1526 1498 1484 1508 1508 1506 1487 1491 1495 1488 1495 1499 1501 1498 1499 1501 1503 1504 1505 1505 1504 1502 1500 1497 1493 1490 1486 1482 1477 1473 1468 1463 1457 1451 1444 1438 1431 1425 1417 1411
1540 1540 1530 1551 1522 1490 1485 1501 1503 1504 1487 1487 1487 1481 1490 1498 1498 1488 1493 1495 1499 1501 1501 1500 1498 1497 1495 1493 1488 1485 1482 1478 1474 1470 1465 1460 1454 1449 1443 1438 1431 1425 1419 1411
1535 1537 1527 1525 1517 1499 1495 1502 1504 1494 1482 1489 1487 1487 1489 1491 1489 1491 1492 1495 1497 1497 1496 1495 1493 1491 1490 1487 1483 1480 1477 1474 1470 1466 1462 1457 1452 1446 1441 1436 1430 1425 1418 1411
1510 1517 1523 1523 1523 1505 1499 1505 1498 1499 1496 1492 1489 1488 1489 1490 1490 1491 1491 1492 1492 1492 1491 1490 1488 1486 1485 1481 1478 1475 1472 1469 1465 1462 1458 1454 1449 1444 1438 1433 1428 1422 1417 1411
1502 1494 1497 1499 1491 1499 1499 1499 1499 1499 1497 1495 1493 1492 1491 1490 1490 1489 1489 1489 1489 1488 1487 1485 1482 1480 1479 1476 1473 1469 1467 1464 1460 1457 1454 1450 1446 1442 1436 1430 1426 1421 1416 1411
1496 1500 1497 1495 1500 1499 1498 1499 1500 1496 1494 1493 1493 1492 1491 1489 1488 1487 1486 1485 1484 1483 1481 1479 1476 1474 1472 1470 1467 1464 1461 1458 1455 1452 1450 1446 1442 1439 1435 1429 1423 1419 1415 1411
1497 1498 1494 1495 1500 1500 1500 1500 1499 1497 1495 1493 1492 1490 1489 1488 1487 1485 1484 1482 1480 1479 1476 1474 1471 1467 1464 1462 1460 1458 1455 1451 1448 1446 1444 1441 1438 1435 1431 1428 1422 1417 1415 1411
1501 1499 1494 1489 1502 1502 1501 1500 1499 1497 1495 1493 1492 1490 1488 1487 1485 1482 1480 1478 1476 1474 1471 1468 1464 1461 1457 1454 1452 1450 1447 1444 1441 1439 1439 1437 1433 1430 1427 1423 1421 1418 1412 1409